Change the Weather History Date:

Monday, October 8, 2012

  Actual Average (LIED) Record (LIED)
Temperature  
Mean Temperature 76 °F -  
Max Temperature 83 °F 69 °F 85 °F (2014)
Min Temperature 68 °F 58 °F 48 °F (1999)
Cooling Degree Days 10    
Growing Degree Days 26 (Base 50)    
Moisture  
Dew Point 66 °F    
Average Humidity 80    
Maximum Humidity 100    
Minimum Humidity 51    
Precipitation  
Precipitation 0.00 in 0.09 in - ()
Sea Level Pressure  
Sea Level Pressure 29.97 in    
Wind  
Wind Speed 7 mph ()    
Max Wind Speed 18 mph    
Max Gust Speed -    
Visibility 7.9 miles    
Events      
Averages and records for this station are not official NWS values.
T = Trace of Precipitation, MM = Missing Value Source: Averaged Metar Reports

Daily Weather History Graph

Daily Weather History Graph

Search for Another Location

Airport or City:

Trip Planner

Search our weather history database for the weather conditions in past years. The results will help you decide how hot, cold, wet, or windy it might be!

Date:

Astronomy

Oct. 08, 2012 Rise Set
Actual Time 7:24 AM CEST 6:51 PM CEST
Civil Twilight 6:57 AM CEST 7:19 PM CEST
Nautical Twilight 6:26 AM CEST 7:50 PM CEST
Astronomical Twilight 5:54 AM CEST 8:21 PM CEST
Moon No Moon Rise 2:30 PM CEST (10/8)
Length of Visible Light 12h 21m
Length of Day
11h 27m
Waning Gibbous, 49% of the Moon is Illuminated
Oct 8
Waning Gibbous
Oct 15
New
Oct 22
First Quarter
Oct 29
Full
Nov 7
Last Quarter

Hourly Weather History & Observations

Time (CEST) Temp. Heat Index Dew Point Humidity Pressure Visibility Wind Dir Wind Speed Gust Speed Precip Events Conditions
12:55 AM 69.8 °F - 69.8 °F 100% 29.98 in 6.2 mi SE 4.6 mph - N/A   Scattered Clouds
1:55 AM 69.8 °F - 69.8 °F 100% 29.98 in 6.2 mi SE 5.8 mph - N/A   Scattered Clouds
2:00 AM 70 °F - 69 °F 95% 29.98 in 12 mi SE 5.8 mph - -   Partly Cloudy
4:55 AM 69.8 °F - 64.4 °F 83% 29.98 in - SW 8.1 mph - N/A   Clear
5:55 AM 69.8 °F - 62.6 °F 78% 29.95 in - SW 4.6 mph - N/A   Clear
6:55 AM 71.6 °F - 59.0 °F 64% 29.95 in - West 2.3 mph - N/A   Clear
7:55 AM 69.8 °F - 59.0 °F 68% 29.95 in - WSW 5.8 mph - N/A   Clear
8:00 AM 71 °F - 59 °F 57% 29.96 in 12 mi WSW 5.8 mph - -  
8:55 AM 69.8 °F - 57.2 °F 64% 29.95 in - WSW 8.1 mph - N/A   Clear
10:55 AM 78.8 °F - 59.0 °F 51% 29.95 in 6.2 mi East 6.9 mph - N/A   Partly Cloudy
11:55 AM 80.6 °F 82.7 °F 66.2 °F 61% 29.98 in 6.2 mi East 11.5 mph - N/A   Partly Cloudy
12:55 PM 78.8 °F - 68.0 °F 69% 29.98 in 6.2 mi East 13.8 mph - N/A   Partly Cloudy
1:55 PM 80.6 °F 82.7 °F 66.2 °F 61% 29.98 in 6.2 mi ESE 10.4 mph - N/A   Partly Cloudy
2:00 PM 80 °F - 67 °F 55% 29.97 in 12 mi ESE 10.4 mph - -   Scattered Clouds
2:55 PM 75.2 °F - 68.0 °F 78% 29.98 in 6.2 mi ENE 18.4 mph - N/A   Partly Cloudy
3:55 PM 71.6 °F - 69.8 °F 94% 29.98 in 6.2 mi ENE 18.4 mph - N/A   Partly Cloudy
4:55 PM 71.6 °F - 68.0 °F 88% 29.98 in 6.2 mi ENE 15.0 mph - N/A   Partly Cloudy
5:55 PM 71.6 °F - 69.8 °F 94% 29.98 in 6.2 mi ENE 11.5 mph - N/A   Partly Cloudy
6:55 PM 71.6 °F - 68.0 °F 88% 29.98 in - ENE 8.1 mph - N/A   Clear
8:00 PM 70 °F - 69 °F 95% 29.97 in 12 mi East 8.1 mph - -   Scattered Clouds
8:55 PM 69.8 °F - 68.0 °F 94% 29.98 in - NE 5.8 mph - N/A   Clear
9:55 PM 69.8 °F - 68.0 °F 94% 29.98 in - North 2.3 mph - N/A   Clear
10:55 PM 68.0 °F - 68.0 °F 100% 29.98 in - NW 3.5 mph - N/A   Clear
11:55 PM 68.0 °F - 66.2 °F 94% 29.98 in - WNW 1.2 mph - N/A   Clear